Tracking 17143 objects as of 25-May-2015
HD Live streaming from Space Station

SL-16 DEB

Track SL-16 DEB now!
10-day predictions
SL-16 DEB is classified as:


NORAD ID: 22336
Int'l Code: 1992-093Z
Perigee: 838.9 km
Apogee: 1,017.1 km
Inclination: 71.1 °
Period: 103.4 minutes
Semi major axis: 7299 km
RCS: 0.2247 m2 (medium)
Launch date: December 25, 1992
Source: Commonwealth of Independent States (former USSR) (CIS)

Note: This is SATELLITE DEBRIS
Your satellite tracking list
Your tracking list is empty





NASA's NSSDC Master Catalog

Two Line Element Set (TLE):
1 22336U 92093Z   15144.19319488  .00000563  00000-0  44607-3 0  9995
2 22336 071.1330 075.1981 0122051 270.2786 189.7303 13.92212506134816

Source of the keplerian elements: AFSPC

N2YO: 404